| time (UTC) | temp F | wind direction | speed MPH | gust MPH | rain 1hr in | rain 24hr in | rain mn in | humidity % | barometer mb |
| 20260905220030 | 68 | 232 | 0.0 | 3.0 | 0.00 | 0.00 | 0.00 | 63 | 1012.9 |
| 20260905214530 | 68 | 185 | 1.0 | 4.0 | 0.00 | 0.00 | 0.00 | 63 | 1012.7 |
| 20260905213037 | 70 | 197 | 0.0 | 0.0 | 0.00 | 0.00 | 0.00 | 64 | 1012.5 |
| 20260905211528 | 71 | 202 | 0.0 | 3.0 | 0.00 | 0.00 | 0.00 | 61 | 1012.3 |
| 20260905210025 | 72 | 121 | 1.0 | 5.0 | 0.00 | 0.00 | 0.00 | 57 | 1012.1 |
| 20260905204524 | 73 | 236 | 0.0 | 3.0 | 0.00 | 0.00 | 0.00 | 59 | 1011.9 |
| 20260905203021 | 72 | 236 | 1.0 | 6.0 | 0.00 | 0.00 | 0.00 | 57 | 1012.0 |
| 20260905201519 | 71 | 208 | 1.0 | 2.0 | 0.00 | 0.00 | 0.00 | 60 | 1012.0 |
| 20260905200018 | 71 | 221 | 0.0 | 4.0 | 0.00 | 0.00 | 0.00 | 60 | 1012.1 |
| 20260905194517 | 71 | 232 | 0.0 | 4.0 | 0.00 | 0.00 | 0.00 | 57 | 1012.2 |
| 20260905193017 | 71 | 11 | 2.0 | 5.0 | 0.00 | 0.00 | 0.00 | 56 | 1012.3 |
| 20260905191517 | 71 | 313 | 1.0 | 5.0 | 0.00 | 0.00 | 0.00 | 61 | 1012.3 |
| 20260905190016 | 71 | 71 | 0.0 | 4.0 | 0.00 | 0.00 | 0.00 | 59 | 1012.3 |
| 20260905184514 | 71 | 131 | 2.0 | 9.0 | 0.00 | 0.00 | 0.00 | 60 | 1012.1 |
| 20260905183011 | 69 | 81 | 0.0 | 6.0 | 0.00 | 0.00 | 0.00 | 63 | 1011.9 |
| 20260905181512 | 70 | 321 | 1.0 | 5.0 | 0.00 | 0.00 | 0.00 | 61 | 1012.1 |
| 20260905180011 | 69 | 114 | 3.0 | 9.0 | 0.00 | 0.00 | 0.00 | 59 | 1012.1 |
| 20260905174511 | 69 | 173 | 2.0 | 5.0 | 0.00 | 0.00 | 0.00 | 60 | 1012.3 |
| 20260905173010 | 69 | 64 | 1.0 | 6.0 | 0.00 | 0.00 | 0.00 | 61 | 1012.3 |
| 20260905171522 | 70 | 286 | 1.0 | 3.0 | 0.00 | 0.00 | 0.00 | 62 | 1012.3 |
| 20260905170009 | 69 | 68 | 1.0 | 8.0 | 0.00 | 0.00 | 0.00 | 59 | 1012.3 |
| 20260905164509 | 69 | 92 | 0.0 | 6.0 | 0.00 | 0.00 | 0.00 | 61 | 1012.4 |
| 20260905163007 | 69 | 122 | 0.0 | 9.0 | 0.00 | 0.00 | 0.00 | 61 | 1012.3 |
| 20260905161507 | 69 | 73 | 1.0 | 6.0 | 0.00 | 0.00 | 0.00 | 58 | 1012.4 |
| 20260905160014 | 69 | 86 | 0.0 | 9.0 | 0.00 | 0.00 | 0.00 | 63 | 1012.4 |
| 20260905154505 | 69 | 313 | 1.0 | 3.0 | 0.00 | 0.00 | 0.00 | 65 | 1012.4 |
| 20260905153004 | 68 | 313 | 1.0 | 3.0 | 0.00 | 0.00 | 0.00 | 64 | 1012.2 |
| 20260905151504 | 68 | 196 | 0.0 | 3.0 | 0.00 | 0.00 | 0.00 | 66 | 1012.2 |
| 20260905150003 | 69 | 193 | 1.0 | 4.0 | 0.00 | 0.00 | 0.00 | 63 | 1012.2 |
| 20260905144501 | 70 | 306 | 0.0 | 4.0 | 0.00 | 0.00 | 0.00 | 63 | 1012.1 |
| 20260905143058 | 69 | 150 | 1.0 | 3.0 | 0.00 | 0.00 | 0.00 | 64 | 1012.1 |
| 20260905141556 | 69 | 71 | 1.0 | 8.0 | 0.00 | 0.00 | 0.00 | 62 | 1012.1 |
| 20260905140054 | 69 | 123 | 1.0 | 4.0 | 0.00 | 0.00 | 0.00 | 65 | 1012.1 |
| 20260905134556 | 68 | 213 | 0.0 | 2.0 | 0.00 | 0.00 | 0.00 | 71 | 1012.0 |
| 20260905133046 | 66 | 211 | 0.0 | 4.0 | 0.00 | 0.00 | 0.00 | 74 | 1011.8 |
| 20260905131549 | 64 | 107 | 0.0 | 1.0 | 0.00 | 0.00 | 0.00 | 80 | 1011.7 |
| 20260905130038 | 62 | 105 | 0.0 | 2.0 | 0.00 | 0.00 | 0.00 | 82 | 1011.7 |
| 20260905124540 | 61 | 105 | 0.0 | 1.0 | 0.00 | 0.00 | 0.00 | 82 | 1011.9 |
| 20260905123031 | 60 | 105 | 0.0 | 2.0 | 0.00 | 0.00 | 0.00 | 82 | 1011.9 |
| 20260905121529 | 59 | 105 | 0.0 | 0.0 | 0.00 | 0.00 | 0.00 | 82 | 1011.8 |
| 20260905120026 | 58 | 105 | 0.0 | 0.0 | 0.00 | 0.00 | 0.00 | 82 | 1011.8 |
| 20260905114537 | 58 | 105 | 0.0 | 0.0 | 0.00 | 0.00 | 0.00 | 82 | 1011.7 |
| 20260905113032 | 57 | 105 | 0.0 | 0.0 | 0.00 | 0.00 | 0.00 | 82 | 1011.6 |
| 20260905111524 | 57 | 105 | 0.0 | 0.0 | 0.00 | 0.00 | 0.00 | 82 | 1011.5 |
| 20260905110117 | 56 | 105 | 0.0 | 0.0 | 0.00 | 0.00 | 0.00 | 82 | 1011.3 |
| 20260905104521 | 56 | 105 | 0.0 | 0.0 | 0.00 | 0.00 | 0.00 | 82 | 1011.3 |
| 20260905103023 | 56 | 105 | 0.0 | 0.0 | 0.00 | 0.00 | 0.00 | 82 | 1011.3 |
| 20260905101520 | 55 | 105 | 0.0 | 0.0 | 0.00 | 0.00 | 0.00 | 82 | 1011.1 |
| 20260905100021 | 55 | 105 | 0.0 | 0.0 | 0.00 | 0.01 | 0.00 | 82 | 1011.0 |
| 20260905094513 | 55 | 105 | 0.0 | 0.0 | 0.00 | 0.01 | 0.00 | 82 | 1010.9 |
| 20260905093012 | 55 | 105 | 0.0 | 0.0 | 0.00 | 0.01 | 0.00 | 82 | 1010.9 |
| 20260905091511 | 54 | 105 | 0.0 | 0.0 | 0.00 | 0.01 | 0.00 | 82 | 1011.0 |
| 20260905090013 | 54 | 105 | 0.0 | 0.0 | 0.00 | 0.01 | 0.00 | 82 | 1010.9 |
| 20260905084508 | 54 | 105 | 0.0 | 0.0 | 0.00 | 0.01 | 0.00 | 82 | 1011.1 |
| 20260905083009 | 55 | 105 | 0.0 | 1.0 | 0.00 | 0.01 | 0.00 | 82 | 1011.0 |
| 20260905081508 | 55 | 105 | 0.0 | 0.0 | 0.00 | 0.01 | 0.00 | 81 | 1011.0 |
| 20260905080005 | 55 | 105 | 0.0 | 0.0 | 0.00 | 0.01 | 0.00 | 82 | 1010.8 |
| 20260905074504 | 55 | 105 | 0.0 | 0.0 | 0.00 | 0.01 | 0.00 | 81 | 1010.8 |
| 20260905073003 | 56 | 105 | 0.0 | 0.0 | 0.00 | 0.01 | 0.00 | 81 | 1010.8 |
| 20260905071603 | 56 | 105 | 0.0 | 1.0 | 0.00 | 0.01 | 0.00 | 81 | 1010.8 |
| 20260905070100 | 56 | 105 | 0.0 | 0.0 | 0.00 | 0.01 | 0.00 | 81 | 1011.0 |
| 20260905064600 | 56 | 105 | 0.0 | 2.0 | 0.00 | 0.01 | 0.00 | 81 | 1011.2 |
| 20260905063102 | 57 | 105 | 0.0 | 0.0 | 0.00 | 0.01 | 0.00 | 81 | 1011.3 |
| 20260905061610 | 57 | 105 | 0.0 | 0.0 | 0.00 | 0.01 | 0.00 | 81 | 1011.3 |
| 20260905060053 | 57 | 105 | 0.0 | 0.0 | 0.00 | 0.01 | 0.00 | 81 | 1011.4 |
| 20260905054552 | 58 | 105 | 0.0 | 0.0 | 0.00 | 0.01 | 0.00 | 81 | 1011.0 |
| 20260905053057 | 58 | 105 | 0.0 | 0.0 | 0.00 | 0.01 | 0.00 | 81 | 1010.7 |
| 20260905051547 | 59 | 105 | 0.0 | 0.0 | 0.00 | 0.01 | 0.00 | 81 | 1011.0 |
| 20260905050045 | 59 | 105 | 0.0 | 0.0 | 0.00 | 0.01 | 0.00 | 81 | 1011.1 |
| 20260905044544 | 59 | 105 | 0.0 | 0.0 | 0.00 | 0.01 | 0.00 | 81 | 1011.0 |
| 20260905043043 | 59 | 105 | 0.0 | 0.0 | 0.00 | 0.01 | 0.00 | 80 | 1011.4 |
| 20260905041544 | 59 | 105 | 0.0 | 0.0 | 0.00 | 0.01 | 0.00 | 78 | 1011.3 |
| 20260905040039 | 59 | 105 | 0.0 | 0.0 | 0.00 | 0.01 | 0.00 | 78 | 1011.2 |
| 20260905034539 | 60 | 105 | 0.0 | 0.0 | 0.00 | 0.01 | 0.01 | 73 | 1011.3 |
| 20260905033039 | 60 | 105 | 0.0 | 0.0 | 0.00 | 0.01 | 0.01 | 71 | 1011.1 |
| 20260905031538 | 61 | 105 | 0.0 | 0.0 | 0.00 | 0.01 | 0.01 | 69 | 1011.1 |
| 20260905030040 | 61 | 105 | 0.0 | 0.0 | 0.00 | 0.01 | 0.01 | 68 | 1011.2 |
| 20260905024540 | 62 | 105 | 0.0 | 0.0 | 0.00 | 0.01 | 0.01 | 68 | 1011.5 |
| 20260905023037 | 63 | 105 | 0.0 | 0.0 | 0.00 | 0.01 | 0.01 | 68 | 1011.8 |
| 20260905021537 | 63 | 105 | 0.0 | 0.0 | 0.00 | 0.01 | 0.01 | 67 | 1011.7 |
| 20260905020053 | 63 | 105 | 0.0 | 0.0 | 0.00 | 0.01 | 0.01 | 66 | 1011.6 |
| 20260905014535 | 64 | 105 | 0.0 | 0.0 | 0.00 | 0.01 | 0.01 | 66 | 1011.7 |
| 20260905013040 | 64 | 105 | 0.0 | 0.0 | 0.00 | 0.01 | 0.01 | 66 | 1011.7 |
| 20260905011534 | 65 | 105 | 0.0 | 0.0 | 0.00 | 0.01 | 0.01 | 67 | 1011.8 |
| 20260905010033 | 65 | 105 | 0.0 | 0.0 | 0.00 | 0.01 | 0.01 | 66 | 1011.8 |
| 20260905004534 | 65 | 105 | 0.0 | 0.0 | 0.00 | 0.01 | 0.01 | 66 | 1011.9 |
| 20260905003033 | 65 | 105 | 0.0 | 0.0 | 0.00 | 0.01 | 0.01 | 66 | 1011.9 |
| 20260905001532 | 66 | 105 | 0.0 | 1.0 | 0.00 | 0.01 | 0.01 | 66 | 1011.8 |
| 20260905000032 | 66 | 99 | 0.0 | 0.0 | 0.00 | 0.01 | 0.01 | 67 | 1011.5 |
| 20260904234531 | 66 | 99 | 0.0 | 1.0 | 0.00 | 0.01 | 0.01 | 67 | 1011.3 |
| 20260904233036 | 67 | 99 | 0.0 | 0.0 | 0.00 | 0.01 | 0.01 | 67 | 1011.1 |
| 20260904231534 | 67 | 99 | 0.0 | 0.0 | 0.00 | 0.01 | 0.01 | 67 | 1011.0 |
| 20260904230030 | 68 | 99 | 0.0 | 0.0 | 0.00 | 0.01 | 0.01 | 65 | 1011.0 |
| 20260904224529 | 69 | 99 | 0.0 | 3.0 | 0.00 | 0.01 | 0.01 | 65 | 1011.0 |
| 20260904223031 | 70 | 96 | 0.0 | 2.0 | 0.00 | 0.01 | 0.01 | 63 | 1010.9 |
| 20260904221529 | 71 | 95 | 0.0 | 5.0 | 0.00 | 0.01 | 0.01 | 62 | 1010.9 |